Location: Dzierzno
(50.6159°N, 19.2852°E)
Time: 00:59:34
(UTC+00:00)

ATLAS 5 CENTAUR R/B - Pass Details

Date: 18 November 2025
Orbit: 373 x 1090 km, 63.3° (Epoch: 04 December)

Event Time Altitude Azimuth Distance (km) Brightness Sun altitude
Rises 16:05:38 0° 309° (NW) 2,759 5.4 -11.4°
Reaches altitude 10° 16:07:51 10° 298° (WNW) 1,966 4.8 -11.8°
Maximum altitude 16:11:47 31° 237° (WSW) 1,207 3.8 -12.4°
Drops below altitude 10° 16:16:31 10° 176° (S) 2,374 4.7 -13.1°
Sets 16:19:26 0° 167° (SSE) 3,434 5.4 -13.5°
